Weather History for KANK - November, 2012

Change the Weather History Date:

Wednesday, November 14, 2012

  Actual Average Record
Temperature  
Mean Temperature 38 °F -  
Max Temperature 55 °F - - ()
Min Temperature 22 °F - - ()
Degree Days  
Heating Degree Days 26    
Moisture  
Dew Point 3 °F    
Average Humidity 29    
Maximum Humidity 58    
Minimum Humidity 7    
Precipitation  
Precipitation 0.00 in - - ()
Sea Level Pressure  
Sea Level Pressure 30.31 in    
Wind  
Wind Speed 8 mph (West)    
Max Wind Speed 23 mph    
Max Gust Speed 32 mph    
Visibility 10 miles    
Events      
T = Trace of Precipitation, MM = Missing Value Source: NWS Daily Summary

Daily Weather History Graph

Daily Weather History Graph

Search for Another Location

Airport or City:

Trip Planner

Search our weather history database for the weather conditions in past years. The results will help you decide how hot, cold, wet, or windy it might be!

Date:

Astronomy

Nov. 14, 2012 Rise Set
Actual Time 6:45 AM MST 4:51 PM MST
Civil Twilight 6:17 AM MST 5:19 PM MST
Nautical Twilight 5:45 AM MST 5:51 PM MST
Astronomical Twilight 5:13 AM MST 6:23 PM MST
Moon 7:37 AM MST (11/14) 5:43 PM MST (11/14)
Length of Visible Light 11h 02m
Length of Day
10h 05m
New Moon, 1% of the Moon is Illuminated
Nov 14
New Moon
Nov 20
First Quarter
Nov 28
Full
Dec 6
Last Quarter
Dec 13
New

Hourly Weather History & Observations

Time (MST) Temp. Windchill Dew Point Humidity Pressure Visibility Wind Dir Wind Speed Gust Speed Precip Events Conditions
12:15 AM 28.6 °F 24.8 °F 12.6 °F 51% 30.40 in 10.0 mi North 3.5 mph - N/A   Clear
12:35 AM 28.4 °F 21.2 °F 12.6 °F 52% 30.40 in 10.0 mi NNW 6.9 mph - N/A   Clear
12:55 AM 28.0 °F - 12.6 °F 52% 30.39 in 10.0 mi Calm Calm - N/A   Clear
1:15 AM 27.1 °F - 12.2 °F 53% 30.39 in 10.0 mi Calm Calm - N/A   Clear
1:35 AM 26.2 °F 18.6 °F 12.2 °F 55% 30.38 in 10.0 mi NNW 6.9 mph - N/A   Clear
1:55 AM 26.1 °F 20.5 °F 11.8 °F 55% 30.38 in 10.0 mi NNW 4.6 mph - N/A   Clear
2:15 AM 26.2 °F 20.7 °F 12.0 °F 55% 30.38 in 10.0 mi NNW 4.6 mph - N/A   Clear
2:55 AM 25.7 °F 15.1 °F 11.5 °F 55% 30.36 in 10.0 mi NNW 11.5 mph - N/A   Clear
3:15 AM 26.4 °F 15.0 °F 11.3 °F 53% 30.35 in 10.0 mi NNW 13.8 mph - N/A   Clear
3:35 AM 26.8 °F 15.9 °F 11.5 °F 53% 30.34 in 10.0 mi NNW 12.7 mph 17.3 mph N/A   Clear
3:55 AM 25.5 °F 14.3 °F 11.3 °F 55% 30.34 in 10.0 mi NNW 12.7 mph - N/A   Clear
4:15 AM 24.8 °F - 10.9 °F 56% 30.34 in 10.0 mi Calm Calm - N/A   Clear
4:35 AM 24.1 °F 19.7 °F 10.6 °F 56% 30.34 in 10.0 mi NW 3.5 mph - N/A   Clear
4:55 AM 23.7 °F 19.3 °F 10.2 °F 56% 30.34 in 10.0 mi NW 3.5 mph - N/A   Clear
5:15 AM 24.1 °F 17.0 °F 10.4 °F 56% 30.35 in 10.0 mi NW 5.8 mph - N/A   Clear
5:55 AM 23.7 °F 19.3 °F 10.2 °F 56% 30.33 in 10.0 mi NNW 3.5 mph 16.1 mph N/A   Clear
6:15 AM 23.4 °F 18.9 °F 9.9 °F 56% 30.34 in 10.0 mi North 3.5 mph - N/A   Clear
6:35 AM 22.6 °F 16.5 °F 9.7 °F 58% 30.33 in 10.0 mi NW 4.6 mph - N/A   Clear
6:55 AM 23.4 °F 16.2 °F 9.5 °F 55% 30.34 in 10.0 mi NNW 5.8 mph - N/A   Clear
7:15 AM 23.5 °F 17.6 °F 9.5 °F 55% 30.35 in 10.0 mi NW 4.6 mph - N/A   Clear
7:35 AM 24.6 °F 20.3 °F 9.3 °F 52% 30.35 in 10.0 mi NNW 3.5 mph - N/A   Clear
7:55 AM 26.2 °F 20.7 °F 8.8 °F 48% 30.35 in 10.0 mi NW 4.6 mph - N/A   Clear
8:15 AM 28.6 °F 22.4 °F 8.4 °F 43% 30.35 in 10.0 mi NNW 5.8 mph - N/A   Clear
8:35 AM 30.6 °F 25.8 °F 8.2 °F 39% 30.35 in 10.0 mi NW 4.6 mph - N/A   Clear
8:55 AM 32.7 °F 28.3 °F 8.2 °F 36% 30.35 in 10.0 mi North 4.6 mph - N/A   Clear
9:15 AM 35.4 °F 31.5 °F 8.6 °F 33% 30.34 in 10.0 mi North 4.6 mph - N/A   Clear
9:35 AM 40.5 °F 37.3 °F 7.7 °F 26% 30.34 in 10.0 mi North 4.6 mph - N/A   Clear
9:55 AM 45.3 °F 41.6 °F 4.1 °F 18% 30.33 in 10.0 mi NNE 6.9 mph - N/A   Clear
10:15 AM 52.7 °F - -2.2 °F 10% 30.32 in 10.0 mi SW 12.7 mph 19.6 mph N/A   Clear
10:35 AM 53.2 °F - -2.7 °F 10% 30.31 in 10.0 mi SW 16.1 mph 24.2 mph N/A   Clear
10:55 AM 54.3 °F - -2.4 °F 10% 30.31 in 10.0 mi SW 13.8 mph 25.3 mph N/A   Clear
11:15 AM 53.8 °F - -1.8 °F 10% 30.29 in 10.0 mi SW 17.3 mph 25.3 mph N/A   Clear
11:55 AM 54.9 °F - -2.2 °F 10% 30.29 in 10.0 mi SSW 16.1 mph 25.3 mph N/A   Clear
12:15 PM 54.5 °F - -2.6 °F 10% 30.27 in 10.0 mi SW 18.4 mph 29.9 mph N/A   Clear
12:35 PM 54.5 °F - -2.2 °F 10% 30.27 in 10.0 mi SW 17.3 mph 26.5 mph N/A   Clear
12:55 PM 54.5 °F - -2.6 °F 10% 30.28 in 10.0 mi WSW 16.1 mph 21.9 mph N/A   Clear
1:15 PM 54.3 °F - -2.6 °F 10% 30.27 in 10.0 mi SSW 16.1 mph 25.3 mph N/A   Clear
1:35 PM 55.6 °F - -2.0 °F 10% 30.27 in 10.0 mi SSW 17.3 mph 27.6 mph N/A   Clear
1:55 PM 55.4 °F - -8.1 °F 7% 30.27 in 10.0 mi WSW 21.9 mph 28.8 mph N/A   Clear
2:35 PM 54.7 °F - -7.6 °F 8% 30.26 in 10.0 mi SW 23.0 mph 32.2 mph N/A   Clear
2:55 PM 54.5 °F - -7.4 °F 8% 30.26 in 10.0 mi WSW 17.3 mph 25.3 mph N/A   Clear
3:15 PM 54.1 °F - -7.8 °F 8% 30.26 in 10.0 mi WSW 15.0 mph 23.0 mph N/A   Clear
3:35 PM 53.6 °F - -7.2 °F 8% 30.25 in 10.0 mi SW 17.3 mph 26.5 mph N/A   Clear
3:55 PM 51.8 °F - -7.1 °F 9% 30.25 in 10.0 mi WSW 19.6 mph 24.2 mph N/A   Clear
4:15 PM 50.2 °F - -6.3 °F 9% 30.25 in 10.0 mi WSW 17.3 mph 27.6 mph N/A   Clear
4:35 PM 48.6 °F - -5.6 °F 10% 30.26 in 10.0 mi SW 16.1 mph 24.2 mph N/A   Clear
4:55 PM 47.5 °F - -4.9 °F 11% 30.27 in 10.0 mi SW 16.1 mph - N/A   Clear
5:15 PM 46.0 °F 41.0 °F -2.2 °F 13% 30.27 in 10.0 mi SSW 10.4 mph 18.4 mph N/A   Clear
5:35 PM 45.5 °F 39.6 °F -1.5 °F 14% 30.28 in 10.0 mi SW 12.7 mph - N/A   Clear
5:55 PM 45.1 °F 39.9 °F -0.0 °F 15% 30.29 in 10.0 mi SW 10.4 mph 17.3 mph N/A   Clear
6:15 PM 45.1 °F 39.5 °F 0.3 °F 16% 30.29 in 10.0 mi SSW 11.5 mph - N/A   Clear
6:35 PM 43.9 °F 37.9 °F 1.0 °F 17% 30.29 in 10.0 mi SW 11.5 mph - N/A   Clear
6:55 PM 43.9 °F 37.5 °F 2.1 °F 18% 30.28 in 10.0 mi SW 12.7 mph 20.7 mph N/A   Clear
7:15 PM 43.7 °F 36.6 °F 2.7 °F 18% 30.28 in 10.0 mi WSW 15.0 mph 19.6 mph N/A   Clear
7:55 PM 43.5 °F 38.3 °F 2.5 °F 18% 30.29 in 10.0 mi WSW 9.2 mph 18.4 mph N/A   Clear
8:15 PM 43.0 °F 36.0 °F 1.2 °F 18% 30.29 in 10.0 mi WSW 13.8 mph - N/A   Clear
8:35 PM 42.6 °F 35.6 °F 1.8 °F 18% 30.29 in 10.0 mi SW 13.8 mph 19.6 mph N/A   Clear
8:55 PM 40.3 °F 38.2 °F 0.5 °F 19% 30.30 in 10.0 mi NNW 3.5 mph - N/A   Clear
9:15 PM 38.5 °F 32.7 °F 0.9 °F 21% 30.30 in 10.0 mi WNW 8.1 mph - N/A   Clear
9:35 PM 38.7 °F 32.9 °F 1.2 °F 21% 30.30 in 10.0 mi West 8.1 mph - N/A   Clear
9:55 PM 36.1 °F - -0.2 °F 21% 30.29 in 10.0 mi Calm Calm - N/A   Clear
10:15 PM 38.8 °F 36.5 °F 1.4 °F 21% 30.29 in 10.0 mi West 3.5 mph - N/A   Clear
10:35 PM 35.8 °F 31.9 °F 0.7 °F 23% 30.29 in 10.0 mi NW 4.6 mph - N/A   Clear
10:55 PM 35.1 °F 32.2 °F 1.2 °F 24% 30.29 in 10.0 mi West 3.5 mph - N/A   Clear
11:15 PM 32.5 °F - 1.0 °F 26% 30.30 in 10.0 mi Calm Calm - N/A   Clear
11:35 PM 31.8 °F 27.3 °F 0.3 °F 26% 30.31 in 10.0 mi North 4.6 mph - N/A   Clear
11:55 PM 34.2 °F 31.2 °F 0.1 °F 24% 30.32 in 10.0 mi NNW 3.5 mph - N/A   Clear